Location: Northcutt
(34.7304°N, 84.4305°W)
Time: 10:54:41
(UTC+00:00)

A-11 Canister half - Pass Details

Date: 06 October 2022
Orbit: 1524 x 1685 km, 47.3° (Epoch: 30 November)

Event Time Altitude Azimuth Distance (km) Brightness Sun altitude
Rises 02:42:43 0° 304° (NW) 4,721 12.4 -42.1°
Reaches altitude 10° 02:45:45 10° 303° (WNW) 3,753 11.7 -42.6°
Enters shadow 02:52:56 56° 283° (WNW) 1,847 9.4 -43.9°
Maximum altitude 02:55:13 73° 221° (SW) 1,662 - -44.3°
Drops below altitude 10° 03:05:02 10° 139° (SE) 3,869 - -46.0°
Sets 03:08:12 0° 137° (SE) 4,873 - -46.5°
